Transatlantic — WDC2769 — position and weather

sailwx.info

Track history (hours):
 
Tides and Currents Weather Stations Pressure Air Temp Water Temp Dewpoint Dewpoint Depression Visibility Wind Speed Wind Dir Waves Ship Positions

Transatlantic

Owner: TRANSATLANTIC LINES SHIP HOLDINGS II INC, Greenwich, CT. More information available from US FCC via Universal Licensing System and Coast Guard Vessel Documentation Center.

Last reported at 2015-Feb-05 09:24 UTC. Time now 2015-Feb-27 22:41 UTC.
Position N 37°27' W 029°34'.
Warning: this ship's position is 22 days out of date.

Length 101 m; draft 5.3 m.

Type: Cargo ship. MMSI: 366997520.

Date/timePositionNaut miles runAvg speedWind from/ knotsBaromVisibWave heightAir tempDewpointWater temp
2015-Feb-05 09:24N 37°27' W 029°34'7 8.3
2015-Feb-05 08:33N 37°31' W 029°27'8 8.4
2015-Feb-05 07:33N 37°36' W 029°19'8 8.3
2015-Feb-05 06:33N 37°41' W 029°11'8 8.0
2015-Feb-05 05:33N 37°47' W 029°03'8 8.0
2015-Feb-05 04:33N 37°52' W 028°55'7 7.4
2015-Feb-05 03:33N 37°56' W 028°48'7 7.0
2015-Feb-05 02:33N 38°01' W 028°41'7 6.8
2015-Feb-05 01:33N 38°06' W 028°35'7 7.1
2015-Feb-05 00:33N 38°10' W 028°28'8 7.5
2015-Feb-04 23:33N 38°15' W 028°20'8 8.1
2015-Feb-04 22:33N 38°19' W 028°12'10 9.9
2015-Feb-04 21:33N 38°22' W 027°60'49 3.6
2015-Feb-04 08:07N 38°43' W 027°03'0 0.0
2015-Feb-04 07:22N 38°43' W 027°03'0 0.0
2015-Feb-04 06:33N 38°43' W 027°03'0 0.0
2015-Feb-04 05:30N 38°43' W 027°03'0 0.0
2015-Feb-04 04:33N 38°43' W 027°03'0 0.0
2015-Feb-04 03:29N 38°43' W 027°03'0 0.0
2015-Feb-04 02:33N 38°43' W 027°03'0 0.0
2015-Feb-04 01:33N 38°43' W 027°03'0 0.0
2015-Feb-04 00:33N 38°43' W 027°03'0 0.0
2015-Feb-03 23:32N 38°43' W 027°03'0 0.0
2015-Feb-03 22:33N 38°43' W 027°03'0 0.0
2015-Feb-03 21:33N 38°43' W 027°03'0 0.0
2015-Feb-03 20:33N 38°43' W 027°03'0 0.0
2015-Feb-03 19:33N 38°43' W 027°03'0 0.0
2015-Feb-03 18:33N 38°43' W 027°03'0 0.0
2015-Feb-03 17:33N 38°43' W 027°03'0 0.0
2015-Feb-03 16:33N 38°43' W 027°03'0 0.0
2015-Feb-03 15:33N 38°43' W 027°03'0 0.1
2015-Feb-03 14:33N 38°43' W 027°03'0 0.1
2015-Feb-03 13:33N 38°43' W 027°03'0 0.0
2015-Feb-03 12:33N 38°43' W 027°03'0 0.1
2015-Feb-03 11:33N 38°43' W 027°03'12 5.6
2015-Feb-03 09:26N 38°42' W 026°48'6 6.8
2015-Feb-03 08:29N 38°40' W 026°40'6 6.9
2015-Feb-03 07:34N 38°39' W 026°32'14 6.9
2015-Feb-03 05:29N 38°36' W 026°14'7 7.3
2015-Feb-03 04:33N 38°35' W 026°05'8 8.4
2015-Feb-03 03:33N 38°33' W 025°55'8 8.3
2015-Feb-03 02:33N 38°31' W 025°45'8 8.4
2015-Feb-03 01:34N 38°30' W 025°34'8 8.4
2015-Feb-03 00:33N 38°28' W 025°23'8 8.1
2015-Feb-02 23:33N 38°27' W 025°13'8 8.1
2015-Feb-02 22:32N 38°25' W 025°03'10 8.4
2015-Feb-02 21:23N 38°23' W 024°51'7 8.5
2015-Feb-02 20:33N 38°22' W 024°42'9 8.6
2015-Feb-02 19:33N 38°20' W 024°31'10 9.6
2015-Feb-02 18:33N 38°18' W 024°19'11 9.8
2015-Feb-02 17:28N 38°16' W 024°06'  
2015-Jan-29 16:33N 35°60' W 005°24'5 5.0
2015-Jan-29 15:33N 35°58' W 005°18'4 4.3
2015-Jan-29 14:34N 35°54' W 005°19'0 0.0
2015-Jan-29 13:31N 35°54' W 005°19'0 0.0
2015-Jan-29 12:33N 35°54' W 005°19'0 0.0
2015-Jan-29 11:33N 35°54' W 005°19'0 0.0
2015-Jan-29 10:34N 35°54' W 005°19'0 0.0
2015-Jan-29 09:30N 35°54' W 005°19'0 0.0
2015-Jan-29 08:33N 35°54' W 005°19'0 0.0
2015-Jan-29 07:33N 35°54' W 005°19'0 0.1
2015-Jan-29 06:33N 35°54' W 005°19'6 5.2
2015-Jan-29 05:30N 35°57' W 005°13'269 8.8
2015-Jan-27 23:05N 36°54' E 000°13'5 8.3
2015-Jan-27 22:32N 36°55' E 000°18'10 8.6
2015-Jan-27 21:21N 36°59' E 000°30'8 9.4
2015-Jan-27 20:33N 37°02' E 000°39'10 9.7
2015-Jan-27 19:33N 37°05' E 000°50'  
Track history (hours):
 
Tides and Currents Weather Stations Pressure Air Temp Water Temp Dewpoint Dewpoint Depression Visibility Wind Speed Wind Dir Waves Ship Positions

Transatlantic

Owner: TRANSATLANTIC LINES SHIP HOLDINGS II INC, Greenwich, CT. More information available from US FCC via Universal Licensing System and Coast Guard Vessel Documentation Center.

Last reported at 2015-Feb-05 09:24 UTC. Time now 2015-Feb-27 22:41 UTC.
Position N 37°27' W 029°34'.
Warning: this ship's position is 22 days out of date.

Length 101 m; draft 5.3 m.

Type: Cargo ship. MMSI: 366997520.

Date/timePositionNaut miles runAvg speedWind from/ knotsBaromVisibWave heightAir tempDewpointWater temp
2015-Feb-05 09:24N 37°27' W 029°34'7 8.3
2015-Feb-05 08:33N 37°31' W 029°27'8 8.4
2015-Feb-05 07:33N 37°36' W 029°19'8 8.3
2015-Feb-05 06:33N 37°41' W 029°11'8 8.0
2015-Feb-05 05:33N 37°47' W 029°03'8 8.0
2015-Feb-05 04:33N 37°52' W 028°55'7 7.4
2015-Feb-05 03:33N 37°56' W 028°48'7 7.0
2015-Feb-05 02:33N 38°01' W 028°41'7 6.8
2015-Feb-05 01:33N 38°06' W 028°35'7 7.1
2015-Feb-05 00:33N 38°10' W 028°28'8 7.5
2015-Feb-04 23:33N 38°15' W 028°20'8 8.1
2015-Feb-04 22:33N 38°19' W 028°12'10 9.9
2015-Feb-04 21:33N 38°22' W 027°60'49 3.6
2015-Feb-04 08:07N 38°43' W 027°03'0 0.0
2015-Feb-04 07:22N 38°43' W 027°03'0 0.0
2015-Feb-04 06:33N 38°43' W 027°03'0 0.0
2015-Feb-04 05:30N 38°43' W 027°03'0 0.0
2015-Feb-04 04:33N 38°43' W 027°03'0 0.0
2015-Feb-04 03:29N 38°43' W 027°03'0 0.0
2015-Feb-04 02:33N 38°43' W 027°03'0 0.0
2015-Feb-04 01:33N 38°43' W 027°03'0 0.0
2015-Feb-04 00:33N 38°43' W 027°03'0 0.0
2015-Feb-03 23:32N 38°43' W 027°03'0 0.0
2015-Feb-03 22:33N 38°43' W 027°03'0 0.0
2015-Feb-03 21:33N 38°43' W 027°03'0 0.0
2015-Feb-03 20:33N 38°43' W 027°03'0 0.0
2015-Feb-03 19:33N 38°43' W 027°03'0 0.0
2015-Feb-03 18:33N 38°43' W 027°03'0 0.0
2015-Feb-03 17:33N 38°43' W 027°03'0 0.0
2015-Feb-03 16:33N 38°43' W 027°03'0 0.0
2015-Feb-03 15:33N 38°43' W 027°03'0 0.1
2015-Feb-03 14:33N 38°43' W 027°03'0 0.1
2015-Feb-03 13:33N 38°43' W 027°03'0 0.0
2015-Feb-03 12:33N 38°43' W 027°03'0 0.1
2015-Feb-03 11:33N 38°43' W 027°03'12 5.6
2015-Feb-03 09:26N 38°42' W 026°48'6 6.8
2015-Feb-03 08:29N 38°40' W 026°40'6 6.9
2015-Feb-03 07:34N 38°39' W 026°32'14 6.9
2015-Feb-03 05:29N 38°36' W 026°14'7 7.3
2015-Feb-03 04:33N 38°35' W 026°05'8 8.4
2015-Feb-03 03:33N 38°33' W 025°55'8 8.3
2015-Feb-03 02:33N 38°31' W 025°45'8 8.4
2015-Feb-03 01:34N 38°30' W 025°34'8 8.4
2015-Feb-03 00:33N 38°28' W 025°23'8 8.1
2015-Feb-02 23:33N 38°27' W 025°13'8 8.1
2015-Feb-02 22:32N 38°25' W 025°03'10 8.4
2015-Feb-02 21:23N 38°23' W 024°51'7 8.5
2015-Feb-02 20:33N 38°22' W 024°42'9 8.6
2015-Feb-02 19:33N 38°20' W 024°31'10 9.6
2015-Feb-02 18:33N 38°18' W 024°19'11 9.8
2015-Feb-02 17:28N 38°16' W 024°06'  
2015-Jan-29 16:33N 35°60' W 005°24'5 5.0
2015-Jan-29 15:33N 35°58' W 005°18'4 4.3
2015-Jan-29 14:34N 35°54' W 005°19'0 0.0
2015-Jan-29 13:31N 35°54' W 005°19'0 0.0
2015-Jan-29 12:33N 35°54' W 005°19'0 0.0
2015-Jan-29 11:33N 35°54' W 005°19'0 0.0
2015-Jan-29 10:34N 35°54' W 005°19'0 0.0
2015-Jan-29 09:30N 35°54' W 005°19'0 0.0
2015-Jan-29 08:33N 35°54' W 005°19'0 0.0
2015-Jan-29 07:33N 35°54' W 005°19'0 0.1
2015-Jan-29 06:33N 35°54' W 005°19'6 5.2
2015-Jan-29 05:30N 35°57' W 005°13'269 8.8
2015-Jan-27 23:05N 36°54' E 000°13'5 8.3
2015-Jan-27 22:32N 36°55' E 000°18'10 8.6
2015-Jan-27 21:21N 36°59' E 000°30'8 9.4
2015-Jan-27 20:33N 37°02' E 000°39'10 9.7
2015-Jan-27 19:33N 37°05' E 000°50'  

Dump ship's entire track history